#timestamp,LO_Frequency,Hit,StdDev 
1514689215.1,286046994.2,N
1514689235.8,286046993.7,N
1514689255.7,286046996.4,N
1514689275.5,286046999.0,N
1514689295.3,286047002.4,N
1514689315.2,286047004.3,N
1514689335.9,286047005.3,N
1514689355.7,286047007.4,N
1514689375.6,286047001.4,N
1514689395.4,286047002.5,N
1514689415.2,286047003.8,N
1514689435.0,286047005.2,N
1514689435.9,286047005.2,N
1514689455.8,286047003.3,N
1514689475.6,286047004.2,N
1514689495.4,286047005.5,N
1514689515.3,286047006.0,N
1514689535.1,286047001.7,N
1514689555.8,286047004.3,N
1514689575.7,286047002.1,N
1514689595.5,286047002.7,N
1514689615.3,286047001.1,N
1514689635.2,286047000.7,N
1514689655.9,286046999.9,N
1514689675.7,286047004.8,N
1514689695.6,286047004.9,N
1514689715.4,286047000.8,N
1514689735.2,286046996.5,N
1514689755.0,286046999.5,N
1514689756.0,286046999.5,N
1514689775.8,286046996.9,N
1514689795.6,286046994.9,N
1514689815.4,286046995.5,N
1514689835.3,286046994.3,N
1514689855.1,286046995.9,N
1514689875.8,286046993.3,N
1514689895.7,286046997.2,N
1514689915.5,286047002.7,N
1514689935.3,286047001.2,N
1514689955.2,286046998.4,N
1514689975.9,286046998.3,N
1514689995.7,286047001.8,N
1514690015.6,286047004.0,N
1514690035.4,286047006.0,N
1514690055.2,286046999.9,N
1514690075.1,286046998.7,N
1514690076.0,286046998.7,N
1514690095.8,286046998.4,N
1514690115.6,286046997.3,N
1514690135.4,286046997.5,N
1514690155.3,286046994.2,N
1514690175.1,286046990.9,N
1514690195.9,286046987.2,Y
1514690215.7,286046992.2,P
1514690235.5,286046993.8,N
1514690255.3,286046994.5,N
1514690275.2,286046994.5,N
1514690295.0,286046992.8,Y
1514690295.9,286046992.8,P
1514690315.8,286046997.5,N
1514690335.6,286046996.0,N
1514690355.4,286046995.4,N
1514690375.2,286046998.3,N
1514690395.1,286046998.4,N
1514690396.0,286046998.4,N
1514690415.8,286046998.0,N
1514690435.6,286046996.2,N
1514690455.5,286046992.2,Y
1514690475.3,286046995.6,P
1514690495.1,286046997.8,P
1514690515.9,286046994.1,P
1514690535.7,286046993.7,Y
1514690555.5,286046999.3,P
1514690575.4,286046999.0,N
1514690595.2,286047002.5,N
1514690615.0,286047000.8,N
1514690615.9,286047000.8,N
1514690635.8,286046998.2,N
1514690655.6,286046999.0,N
1514690675.4,286046996.8,N
1514690695.3,286046996.8,N
1514690715.1,286046998.2,N
1514690716.0,286046998.2,N
1514690735.8,286047001.0,N
1514690755.7,286047003.4,N
1514690775.5,286047003.9,N
1514690795.3,286047006.0,N
1514690815.1,286047006.0,N
1514690835.9,286047004.2,N
1514690855.7,286047005.3,N
1514690875.5,286047001.6,N
1514690895.4,286046996.8,N
1514690915.2,286046997.6,N
1514690935.0,286046995.2,N
1514690935.9,286046995.2,N
1514690955.8,286046997.5,N
1514690975.6,286046998.2,N
1514690995.4,286047000.9,N
1514691015.3,286047005.5,N
1514691035.1,286047005.0,N
1514691036.0,286047005.0,N
1514691055.8,286047004.1,N
1514691075.7,286047003.5,N
1514691095.5,286047001.9,N
1514691115.3,286046998.0,N
1514691135.2,286046999.3,N
1514691155.9,286046995.0,N
1514691175.7,286046999.2,N
1514691195.5,286046998.1,N
1514691215.4,286046998.6,N
1514691235.2,286047000.3,N
1514691255.0,286047001.7,N
1514691255.9,286047001.7,N
1514691275.8,286047003.8,N
1514691295.6,286047002.3,N
1514691315.4,286047003.9,N
1514691335.3,286047001.3,N
1514691355.1,286047002.6,N
1514691356.0,286047002.6,N
1514691375.8,286046998.3,N
1514691395.7,286047001.2,N
1514691415.5,286046997.3,N
1514691435.3,286046995.5,N
1514691455.2,286046995.0,N
1514691475.9,286046994.9,N
1514691495.7,286046999.4,N
1514691515.5,286047001.2,N
1514691535.4,286046999.5,N
1514691555.2,286046998.3,N
1514691575.0,286047000.0,N
1514691575.9,286047000.0,N
1514691595.8,286046998.1,N
1514691615.6,286046995.0,N
1514691635.4,286046994.0,N
1514691655.3,286046995.4,N
1514691675.1,286046995.5,N
1514691676.0,286046995.5,N
1514691695.8,286046997.1,N
1514691715.7,286046997.3,N
1514691735.5,286046997.9,N
1514691755.3,286047000.7,N
1514691775.2,286046999.4,N
1514691795.9,286046995.2,N
1514691815.7,286046993.4,N
1514691835.6,286046995.3,N
1514691855.4,286047001.1,N
1514691875.2,286046997.7,N
1514691895.0,286047000.4,N
1514691895.9,286047000.4,N
1514691915.8,286046998.2,N
1514691935.6,286046999.0,N
1514691955.4,286046999.1,N
1514691975.3,286046996.9,N
1514691995.1,286047000.6,N
1514692015.8,286047006.0,N
1514692035.7,286047012.4,Y
1514692055.5,286047016.4,P
1514692075.3,286047021.4,N
1514692095.2,286047019.0,N
1514692115.9,286047021.9,N
1514692135.7,286047021.0,N
1514692155.6,286047024.4,N
1514692175.4,286047026.6,Y
1514692195.2,286047011.0,P
1514692215.1,286047014.3,P
1514692216.0,286047014.3,P
1514692235.8,286047017.2,Y
1514692255.6,286047001.3,P
1514692275.5,286047002.3,N
1514692295.3,286047001.6,N
1514692315.1,286047000.1,N
1514692335.9,286047004.4,N
1514692355.7,286047000.2,N
1514692375.5,286047001.0,N
1514692395.4,286046997.0,N
1514692415.2,286046997.1,N
1514692435.0,286046995.4,N
1514692435.9,286046995.4,N
1514692455.7,286046994.8,N
1514692475.6,286046988.8,N
1514692495.4,286046986.1,N
1514692515.2,286046985.5,N
1514692535.1,286046984.9,N
1514692536.0,286046984.9,N
1514692555.8,286046984.3,N
1514692575.6,286046983.7,N
1514692595.5,286046985.1,N
1514692615.3,286046982.2,N
1514692635.1,286046980.5,N
1514692655.9,286046982.1,N
1514692675.7,286046983.5,N
1514692695.5,286046982.7,N
1514692715.3,286046980.5,N
1514692735.2,286046983.2,N
1514692755.0,286046985.6,N
1514692755.9,286046985.6,N
1514692775.7,286046985.0,N
1514692795.6,286046984.0,N
